Date String (YYYY-MM-DD hh:mm:ss) UTC,Instrument flags,absolute air pressure of the measurement (hPa),sample flow rate (lpm),inlet stack bypass flow (lpm),air temperature of the measurement (°C),ambient temperature measured by the external sensor (°C),aerosol sample conditioner tube jacket temperature (°C),OPC LED temperature (°C),internal box temperature (°C),relative humidity of the measurement (%),span deviation,mass concentration of particles derived from Lorenz-Mie calculation of OPC scattering (μg/m³),mass concentration of particles derived from Lorenz-Mie calculation of OPC scattering (μg/m³),mass concentration of particles derived from Lorenz-Mie calculation of OPC scattering (μg/m³)
DateTimeUTC,F1_M11,P_M11,Q1_M11,Q2_M11,T1_M11,T2_M11,T3_M11,T4_M11,T5_M11,U1_M11,ZSPAN_M11,X2_M11,X0_M11,X1_M11
2024-02-24 08:00:00,SystemResetWarning,0829.3,4.99,000.00,018.4,017.6,000.0,026.8,020.0,09.9,0000.0,0001.21,0003.07,0000.76
2024-02-24 08:01:00,SystemResetWarning,0829.4,5.02,000.00,018.4,017.6,000.0,026.8,020.0,09.9,0000.0,0001.19,0002.89,0000.76
2024-02-24 08:02:00,SystemResetWarning,0829.3,5.00,000.00,018.4,017.6,000.0,026.8,020.0,10.0,0000.0,0001.10,0001.71,0000.76
2024-02-24 08:03:00,SystemResetWarning,0829.3,4.99,000.00,018.4,017.6,000.0,026.8,020.0,09.8,0000.0,0001.09,0001.70,0000.76
2024-02-24 08:04:00,SystemResetWarning,0829.4,4.99,000.00,018.4,017.6,000.0,026.8,020.0,09.7,0000.0,0001.11,0001.84,0000.77
2024-02-24 08:05:00,SystemResetWarning,0829.3,5.01,000.00,018.4,017.6,000.0,026.9,020.0,09.6,0000.0,0001.13,0001.92,0000.78
2024-02-24 08:06:00,SystemResetWarning,0829.3,5.02,000.00,018.4,017.6,000.0,026.8,020.0,09.6,0000.0,0001.16,0002.03,0000.79
2024-02-24 08:07:00,SystemResetWarning,0829.2,5.00,000.00,018.4,017.6,000.0,026.8,020.0,09.6,0000.0,0001.14,0001.98,0000.79
2024-02-24 08:08:00,SystemResetWarning,0829.2,4.99,000.00,018.4,017.6,000.0,026.9,020.0,09.7,0000.0,0001.13,0001.95,0000.79
2024-02-24 08:09:00,SystemResetWarning,0829.2,4.99,000.00,018.4,017.6,000.0,026.9,020.0,09.8,0000.0,0001.10,0001.87,0000.78
2024-02-24 08:10:00,SystemResetWarning,0829.3,5.01,000.00,018.4,017.6,000.0,026.9,020.0,09.7,0000.0,0001.10,0001.90,0000.78
2024-02-24 08:11:00,SystemResetWarning,0829.2,5.01,000.00,018.4,017.6,000.0,026.9,020.0,09.6,0000.0,0001.07,0001.87,0000.78
2024-02-24 08:12:00,SystemResetWarning,0829.2,4.98,000.00,018.4,017.6,000.0,026.9,020.0,09.6,0000.0,0001.06,0001.85,0000.78
2024-02-24 08:13:00,SystemResetWarning,0829.2,4.99,000.00,018.4,017.7,000.0,026.8,020.0,09.5,0000.0,0001.04,0001.80,0000.78
2024-02-24 08:14:00,SystemResetWarning,0829.1,5.01,000.00,018.4,017.7,000.0,026.8,020.0,09.4,0000.0,0001.04,0001.78,0000.79
2024-02-24 08:15:00,SystemResetWarning,0829.1,5.00,000.00,018.4,017.7,000.0,026.8,020.0,09.3,0000.0,0001.05,0002.26,0000.79
2024-02-24 08:16:00,SystemResetWarning,0829.0,5.00,000.00,018.4,017.7,000.0,026.8,020.0,09.2,0000.0,0001.03,0002.75,0000.79
2024-02-24 08:17:00,SystemResetWarning,0829.1,4.99,000.00,018.4,017.6,000.0,026.8,020.0,09.0,0000.0,0000.99,0002.60,0000.78
2024-02-24 08:18:00,SystemResetWarning,0829.1,5.00,000.00,018.4,017.6,000.0,026.8,020.0,09.2,0000.0,0000.96,0002.53,0000.77
2024-02-24 08:19:00,SystemResetWarning,0829.1,5.00,000.00,018.4,017.6,000.0,026.8,020.0,09.4,0000.0,0000.93,0002.48,0000.77
2024-02-24 08:20:00,SystemResetWarning,0829.1,5.00,000.00,018.4,017.6,000.0,026.8,020.0,09.5,0000.0,0000.97,0002.59,0000.78
2024-02-24 08:21:00,SystemResetWarning,0829.1,5.00,000.00,018.4,017.6,000.0,026.8,020.0,09.5,0000.0,0000.99,0002.67,0000.77
2024-02-24 08:22:00,SystemResetWarning,0829.2,5.00,000.00,018.4,017.7,000.0,026.8,020.0,09.4,0000.0,0000.99,0002.64,0000.77
2024-02-24 08:23:00,SystemResetWarning,0829.1,5.01,000.00,018.4,017.7,000.0,026.8,020.0,09.3,0000.0,0000.97,0002.58,0000.77
2024-02-24 08:24:00,SystemResetWarning,0829.1,5.00,000.00,018.4,017.7,000.0,026.9,020.0,09.4,0000.0,0000.95,0002.55,0000.76
2024-02-24 08:25:00,SystemResetWarning,0829.1,4.99,000.00,018.4,017.7,000.0,026.9,020.0,09.5,0000.0,0000.94,0002.52,0000.75
2024-02-24 08:26:00,SystemResetWarning,0829.1,4.99,000.00,018.4,017.7,000.0,026.8,020.0,09.6,0000.0,0000.91,0002.05,0000.75
2024-02-24 08:27:00,SystemResetWarning,0829.1,5.00,000.00,018.4,017.7,000.0,026.8,020.0,09.7,0000.0,0000.92,0001.42,0000.75
2024-02-24 08:28:00,SystemResetWarning,0829.1,5.00,000.00,018.4,017.7,000.0,026.8,020.0,09.8,0000.0,0000.95,0001.48,0000.76
2024-02-24 08:29:00,SystemResetWarning,0829.0,5.01,000.00,018.4,017.7,000.0,026.8,020.0,09.7,0000.0,0000.99,0001.62,0000.76
2024-02-24 08:30:00,SystemResetWarning,0829.1,5.01,000.00,018.4,017.7,000.0,026.8,020.0,09.8,0000.0,0001.02,0001.71,0000.76
2024-02-24 08:31:00,SystemResetWarning,0829.0,5.00,000.00,018.4,017.6,000.0,026.8,020.0,09.7,0000.0,0001.02,0001.73,0000.77
2024-02-24 08:32:00,SystemResetWarning,0828.9,4.98,000.00,018.4,017.6,000.0,026.8,020.0,09.8,0000.0,0001.02,0001.75,0000.77
2024-02-24 08:33:00,SystemResetWarning,0828.9,5.02,000.00,018.4,017.6,000.0,026.8,020.0,09.8,0000.0,0001.04,0002.14,0000.78
2024-02-24 08:34:00,SystemResetWarning,0828.9,5.00,000.00,018.4,017.6,000.0,026.8,020.0,09.6,0000.0,0001.07,0003.11,0000.79
2024-02-24 08:35:00,SystemResetWarning,0828.9,5.00,000.00,018.4,017.6,000.0,026.8,020.0,09.2,0000.0,0001.11,0003.84,0000.79
2024-02-24 08:36:00,SystemResetWarning,0828.9,4.99,000.00,018.4,017.6,000.0,026.8,020.0,08.9,0000.0,0001.15,0004.77,0000.80
2024-02-24 08:37:00,SystemResetWarning,0829.0,4.99,000.00,018.4,017.5,000.0,026.8,020.0,08.7,0000.0,0001.16,0004.90,0000.79
2024-02-24 08:38:00,SystemResetWarning,0828.9,5.00,000.00,018.4,017.5,000.0,026.8,020.0,08.8,0000.0,0001.15,0004.99,0000.79
2024-02-24 08:39:00,SystemResetWarning,0829.0,5.01,000.00,018.4,017.5,000.0,026.8,020.0,08.8,0000.0,0001.17,0006.12,0000.79
2024-02-24 08:40:00,SystemResetWarning,0828.9,5.01,000.00,018.4,017.5,000.0,026.8,020.0,08.8,0000.0,0001.15,0006.96,0000.80
2024-02-24 08:41:00,SystemResetWarning,0828.9,5.00,000.00,018.4,017.5,000.0,026.8,020.0,08.5,0000.0,0001.16,0006.95,0000.80
2024-02-24 08:42:00,SystemResetWarning,0828.8,4.99,000.00,018.4,017.5,000.0,026.8,020.0,08.8,0000.0,0001.12,0006.85,0000.79
2024-02-24 08:43:00,SystemResetWarning,0828.7,4.99,000.00,018.4,017.5,000.0,026.8,020.0,08.7,0000.0,0001.08,0006.67,0000.79
2024-02-24 08:44:00,SystemResetWarning,0828.8,5.01,000.00,018.4,017.5,000.0,026.8,020.0,08.6,0000.0,0001.05,0006.50,0000.78
2024-02-24 08:45:00,SystemResetWarning,0828.8,5.01,000.00,018.4,017.5,000.0,026.8,020.0,08.5,0000.0,0001.04,0005.38,0000.78
2024-02-24 08:46:00,SystemResetWarning,0828.8,4.99,000.00,018.3,017.5,000.0,026.8,020.0,08.7,0000.0,0001.09,0005.07,0000.79
2024-02-24 08:47:00,SystemResetWarning,0828.7,4.99,000.00,018.3,017.5,000.0,026.8,020.0,08.6,0000.0,0001.08,0003.95,0000.78
2024-02-24 08:48:00,SystemResetWarning,0828.8,5.00,000.00,018.3,017.5,000.0,026.8,020.0,08.2,0000.0,0001.08,0003.84,0000.78
2024-02-24 08:49:00,SystemResetWarning,0828.7,5.01,000.00,018.3,017.5,000.0,026.8,020.0,08.1,0000.0,0001.12,0003.98,0000.77
2024-02-24 08:50:00,SystemResetWarning,0828.7,5.01,000.00,018.3,017.5,000.0,026.8,020.0,08.4,0000.0,0001.10,0003.11,0000.77
2024-02-24 08:51:00,SystemResetWarning,0828.7,4.98,000.00,018.3,017.5,000.0,026.8,020.0,08.5,0000.0,0001.13,0001.99,0000.78
2024-02-24 08:52:00,SystemResetWarning,0828.7,4.99,000.00,018.3,017.5,000.0,026.8,020.0,08.3,0000.0,0001.14,0001.98,0000.78
2024-02-24 08:53:00,SystemResetWarning,0828.8,5.01,000.00,018.3,017.5,000.0,026.9,020.0,08.5,0000.0,0001.18,0002.04,0000.79
2024-02-24 08:54:00,SystemResetWarning,0828.7,5.01,000.00,018.3,017.5,000.0,026.8,020.0,08.5,0000.0,0001.22,0002.16,0000.79
2024-02-24 08:55:00,SystemResetWarning,0828.7,4.99,000.00,018.3,017.5,000.0,026.8,020.0,08.6,0000.0,0001.24,0002.23,0000.79
2024-02-24 08:56:00,SystemResetWarning,0828.8,5.00,000.00,018.3,017.5,000.0,026.8,020.0,08.8,0000.0,0001.26,0002.27,0000.78
2024-02-24 08:57:00,SystemResetWarning,0828.8,5.00,000.00,018.3,017.5,000.0,026.9,020.0,08.8,0000.0,0001.26,0002.33,0000.79
2024-02-24 08:58:00,SystemResetWarning,0828.8,5.01,000.00,018.3,017.5,000.0,026.8,020.0,08.7,0000.0,0001.28,0002.45,0000.80
2024-02-24 08:59:00,SystemResetWarning,0828.8,5.00,000.00,018.3,017.5,000.0,026.9,020.0,08.7,0000.0,0001.27,0002.46,0000.80
